Total_Precipitation_Accumulation
0.49 0.40 0.50 0.57 0.51 0.57 0.77 0.74 0.65 0.35 0.30 0.33 0.35 0.36 0.38 0.41 0.41 0.42 0.48 0.54 0.55 0.56 0.61 0.65 0.62 0.66 0.76 0.88 0.90 0.90 0.94 1.09 1.28 1.39 1.56 1.64 1.64 1.63 1.64 1.65 1.53 1.49 1.46 1.41
0.54 0.30 0.40 0.47 0.40 0.40 0.45 0.42 0.39 0.27 0.25 0.23 0.29 0.32 0.35 0.41 0.45 0.47 0.52 0.56 0.55 0.55 0.55 0.59 0.61 0.65 0.69 0.77 0.82 0.88 0.93 0.96 1.15 1.36 1.51 1.60 1.61 1.64 1.64 1.64 1.60 1.52 1.46 1.42
0.92 0.42 0.71 0.83 0.51 0.46 0.46 0.42 0.43 0.45 0.39 0.27 0.26 0.32 0.41 0.46 0.49 0.51 0.56 0.60 0.58 0.56 0.56 0.59 0.60 0.63 0.68 0.73 0.77 0.81 0.81 0.84 0.97 1.16 1.35 1.48 1.54 1.61 1.72 1.70 1.64 1.58 1.47 1.39
1.41 1.07 1.42 0.78 0.40 0.40 0.48 0.52 0.49 0.47 0.40 0.36 0.36 0.38 0.41 0.50 0.57 0.54 0.57 0.60 0.58 0.59 0.59 0.60 0.60 0.61 0.67 0.70 0.69 0.71 0.72 0.72 0.79 0.92 1.09 1.29 1.46 1.53 1.62 1.72 1.71 1.61 1.50 1.41
1.93 1.52 0.91 0.44 0.36 0.51 0.58 0.60 0.53 0.47 0.38 0.34 0.31 0.31 0.36 0.44 0.58 0.66 0.65 0.61 0.58 0.57 0.55 0.55 0.58 0.62 0.61 0.64 0.67 0.66 0.67 0.69 0.70 0.77 0.89 1.06 1.25 1.37 1.49 1.60 1.64 1.59 1.50 1.35
2.10 1.63 0.89 0.50 0.33 0.36 0.50 0.69 0.48 0.45 0.44 0.40 0.38 0.42 0.45 0.47 0.55 0.63 0.61 0.58 0.57 0.53 0.49 0.51 0.57 0.60 0.59 0.62 0.64 0.67 0.67 0.68 0.69 0.73 0.77 0.89 1.05 1.21 1.37 1.48 1.55 1.54 1.51 1.36
1.65 1.40 0.74 0.45 0.32 0.32 0.68 0.79 0.46 0.46 0.51 0.49 0.53 0.55 0.51 0.45 0.46 0.52 0.53 0.53 0.51 0.48 0.47 0.53 0.56 0.58 0.62 0.61 0.64 0.65 0.63 0.63 0.66 0.67 0.70 0.78 0.95 1.09 1.24 1.37 1.47 1.46 1.41 1.37
1.09 1.33 0.84 0.45 0.40 0.64 0.79 0.51 0.45 0.44 0.47 0.50 0.48 0.46 0.45 0.43 0.42 0.41 0.44 0.44 0.47 0.47 0.49 0.52 0.53 0.57 0.64 0.63 0.61 0.60 0.58 0.58 0.61 0.61 0.65 0.72 0.86 1.00 1.12 1.28 1.41 1.42 1.34 1.38
0.81 0.78 0.59 0.53 0.61 0.63 0.57 0.52 0.45 0.46 0.44 0.47 0.48 0.47 0.44 0.40 0.39 0.39 0.40 0.40 0.42 0.46 0.48 0.50 0.51 0.55 0.64 0.64 0.59 0.55 0.55 0.56 0.57 0.60 0.64 0.68 0.75 0.89 1.10 1.20 1.31 1.38 1.28 1.29
0.61 0.48 0.40 0.39 0.41 0.45 0.47 0.49 0.45 0.46 0.48 0.47 0.48 0.46 0.40 0.34 0.34 0.35 0.36 0.38 0.38 0.40 0.44 0.50 0.54 0.56 0.59 0.61 0.59 0.52 0.54 0.56 0.56 0.59 0.66 0.65 0.69 0.79 0.99 1.15 1.25 1.34 1.26 1.20
0.52 0.40 0.34 0.30 0.32 0.36 0.38 0.36 0.35 0.37 0.43 0.46 0.44 0.39 0.34 0.31 0.29 0.31 0.35 0.36 0.37 0.39 0.44 0.54 0.61 0.58 0.54 0.56 0.57 0.53 0.54 0.58 0.57 0.57 0.63 0.67 0.73 0.80 0.90 1.04 1.27 1.47 1.38 1.30
0.52 0.41 0.46 0.38 0.31 0.31 0.31 0.31 0.32 0.33 0.35 0.37 0.37 0.34 0.29 0.28 0.29 0.30 0.32 0.33 0.35 0.37 0.41 0.50 0.56 0.56 0.52 0.53 0.54 0.55 0.56 0.56 0.59 0.62 0.62 0.64 0.73 0.87 0.99 1.04 1.15 1.18 1.27 1.35
0.42 0.36 0.37 0.34 0.30 0.29 0.29 0.27 0.28 0.31 0.33 0.35 0.32 0.29 0.26 0.25 0.28 0.31 0.32 0.32 0.34 0.36 0.39 0.45 0.50 0.51 0.52 0.54 0.57 0.59 0.60 0.60 0.62 0.64 0.62 0.63 0.69 0.82 0.98 1.05 1.11 1.12 1.15 1.25
0.28 0.29 0.31 0.30 0.32 0.28 0.26 0.25 0.25 0.26 0.28 0.29 0.30 0.28 0.26 0.25 0.26 0.30 0.33 0.33 0.34 0.34 0.37 0.40 0.45 0.52 0.52 0.52 0.58 0.60 0.61 0.65 0.69 0.67 0.66 0.68 0.74 0.83 0.94 1.05 1.12 1.15 1.20 1.30
0.23 0.27 0.32 0.29 0.27 0.25 0.25 0.25 0.25 0.27 0.27 0.28 0.29 0.31 0.30 0.29 0.28 0.31 0.34 0.34 0.35 0.35 0.36 0.37 0.41 0.50 0.53 0.52 0.57 0.59 0.60 0.63 0.69 0.72 0.71 0.72 0.77 0.86 0.95 1.03 1.09 1.15 1.22 1.41
0.23 0.22 0.24 0.24 0.25 0.25 0.25 0.26 0.27 0.30 0.31 0.31 0.32 0.34 0.35 0.34 0.32 0.34 0.36 0.35 0.37 0.37 0.36 0.35 0.39 0.46 0.52 0.56 0.59 0.59 0.60 0.68 0.74 0.76 0.75 0.77 0.82 0.90 0.98 1.05 1.09 1.15 1.21 1.32
0.32 0.29 0.27 0.27 0.26 0.25 0.27 0.29 0.31 0.33 0.35 0.36 0.37 0.39 0.39 0.36 0.33 0.34 0.36 0.35 0.38 0.38 0.36 0.35 0.38 0.43 0.49 0.53 0.58 0.61 0.64 0.67 0.74 0.76 0.76 0.81 0.87 0.94 1.01 1.09 1.11 1.12 1.14 1.23
0.36 0.36 0.35 0.35 0.34 0.31 0.28 0.28 0.29 0.32 0.36 0.39 0.41 0.41 0.41 0.39 0.35 0.35 0.38 0.37 0.39 0.39 0.35 0.34 0.37 0.43 0.46 0.50 0.57 0.62 0.67 0.70 0.72 0.74 0.79 0.86 0.94 0.98 1.05 1.11 1.10 1.10 1.13 1.22
0.30 0.30 0.30 0.32 0.34 0.35 0.32 0.29 0.27 0.29 0.32 0.35 0.39 0.42 0.42 0.40 0.37 0.38 0.40 0.40 0.42 0.43 0.40 0.39 0.43 0.45 0.46 0.53 0.65 0.64 0.69 0.74 0.77 0.78 0.81 0.92 0.98 0.95 1.02 1.08 1.11 1.10 1.11 1.13
0.27 0.27 0.29 0.30 0.30 0.34 0.33 0.29 0.26 0.27 0.29 0.32 0.37 0.39 0.40 0.41 0.39 0.40 0.42 0.44 0.46 0.49 0.46 0.48 0.47 0.49 0.52 0.59 0.68 0.68 0.73 0.77 0.84 0.88 0.88 0.90 0.95 0.98 1.00 1.07 1.13 1.12 1.08 1.07
0.30 0.31 0.32 0.32 0.31 0.30 0.32 0.32 0.31 0.31 0.30 0.32 0.37 0.41 0.44 0.44 0.41 0.41 0.45 0.47 0.46 0.48 0.49 0.52 0.53 0.59 0.67 0.73 0.75 0.73 0.77 0.81 0.88 0.94 0.96 0.97 0.99 1.00 1.02 1.07 1.12 1.10 1.08 1.07
0.36 0.37 0.37 0.36 0.35 0.34 0.34 0.35 0.37 0.37 0.35 0.35 0.37 0.40 0.44 0.44 0.40 0.39 0.41 0.49 0.52 0.56 0.56 0.53 0.60 0.73 0.81 0.84 0.77 0.75 0.77 0.82 0.91 0.96 0.97 1.01 1.05 1.07 1.06 1.07 1.10 1.08 1.06 1.07
0.45 0.44 0.44 0.43 0.42 0.42 0.39 0.40 0.43 0.45 0.45 0.44 0.45 0.47 0.48 0.46 0.45 0.48 0.49 0.48 0.54 0.62 0.63 0.63 0.75 0.86 0.89 0.85 0.81 0.80 0.82 0.86 0.92 0.98 1.01 1.04 1.06 1.07 1.09 1.08 1.08 1.08 1.09 1.10
0.49 0.49 0.49 0.47 0.44 0.44 0.46 0.47 0.48 0.50 0.52 0.53 0.53 0.54 0.56 0.55 0.50 0.50 0.57 0.62 0.65 0.71 0.70 0.73 0.83 0.92 0.94 0.89 0.86 0.87 0.92 0.94 0.98 1.05 1.05 1.06 1.09 1.09 1.07 1.08 1.09 1.06 1.06 1.07
0.52 0.52 0.50 0.48 0.48 0.51 0.56 0.57 0.56 0.55 0.55 0.56 0.55 0.55 0.58 0.63 0.66 0.62 0.65 0.68 0.70 0.73 0.71 0.73 0.82 0.90 0.90 0.90 0.89 0.92 0.97 1.02 1.12 1.19 1.15 1.11 1.09 1.10 1.08 1.08 1.07 1.06 1.05 1.06
0.55 0.57 0.59 0.60 0.63 0.66 0.67 0.66 0.65 0.64 0.62 0.61 0.59 0.60 0.63 0.65 0.68 0.69 0.72 0.73 0.73 0.76 0.74 0.73 0.77 0.84 0.90 0.93 0.93 0.94 1.00 1.07 1.16 1.17 1.10 1.09 1.08 1.08 1.09 1.08 1.04 1.03 1.04 1.06
0.55 0.57 0.59 0.60 0.62 0.67 0.72 0.74 0.75 0.75 0.73 0.71 0.71 0.69 0.70 0.71 0.72 0.74 0.74 0.73 0.73 0.75 0.79 0.82 0.86 0.92 1.00 1.00 1.00 1.00 1.04 1.08 1.11 1.13 1.12 1.10 1.09 1.08 1.07 1.06 1.06 1.06 1.06 1.05